User: anonymous   Login
Location: Bletchingley
(51.2333°N, 0.1000°W)
Time: 16:09:18
(UTC+00:00)
Language:

SL-14 R/B - Orbit

View from above orbital plane
View from above orbital plane
View from above satellite
View from above satellite

Ground track
Ground track

The orbit data is extracted from the following two-line orbital elements,

1 33505U 09003B   20337.79760714  .00001146  00000-0  68196-4 0  9990
2 33505  82.3884  64.6160 0027685 156.3396 203.9113 15.09947704651619
Epoch (UTC): 02 December 2020 19:08:33
Eccentricity: 0.0027685
inclination: 82.3884°
perigee height: 517 km
apogee height: 555 km
right ascension of ascending node: 64.6160°
argument of perigee: 156.3396°
revolutions per day: 15.09947704
mean anomaly at epoch: 203.9113°
orbit number at epoch: 65161

The dashed part of the orbit path shows where the satellite is in the earth's shadow,  

DLR